"startDT [UTC]","vpos","CH4 [ppm]","stdev(CH4) [ppm]","CO2 [ppm]","stdev(CO2) [ppm]","H2O_reported [%]","stdev(H2O_reported)","CavityPressure [torr]","CavityTemp [C]","OutletValve","CH4_dry [ppm]","CO2_dry [ppm]","DasTemp [C]","EtalonTemp [C]","WarmBoxTemp [C]","MPVPosition","T_ECpre [C]","T_EC1 [C]","T_EC2 [C]","p_inlet [hPa]","p_in [hPa]","p_out [hPa]","T_inlet [C]","RH_inlet [%]","dwpt_inlet [C]","T_vent [C]","RH_vent [%]","dwpt_vent [C]","flow_vent [l min-1]","flow_inlet [l min-1]","dwpt_sample [C]","T_room [C]"
2015-04-14 00:00:00,0.0,1.91618,0.00044,404.168,0.047,0.1825,0.0017,140.003,44.999,34121.94549,1.91964,405.058,34.456,45.067,45.000,0.00,0.09,-272.71,-272.78,-3,957,-4,22.9,4.9,-19.0,22.7,5.0,-18.9,5.73,1.92,-12.2,27.2
2015-04-14 00:01:00,0.0,1.91724,0.00150,404.164,0.032,0.1842,0.0016,140.003,44.999,34130.50849,1.92057,405.062,34.373,45.068,45.001,0.00,0.09,-272.72,-272.78,-3,959,-4,22.9,4.9,-19.0,22.7,5.0,-18.9,5.73,1.97,-12.2,27.1
2015-04-14 00:02:00,0.0,1.91945,0.00161,404.191,0.051,0.1841,0.0015,140.000,44.999,34137.92657,1.92301,405.090,34.273,45.068,45.000,0.00,0.09,-272.72,-272.77,-3,959,-4,22.9,4.9,-18.9,22.7,5.0,-18.9,5.73,1.98,-12.2,27.1
2015-04-14 00:03:00,0.0,1.91612,0.00039,404.160,0.025,0.1850,0.0022,140.002,44.999,34149.27792,1.91968,405.063,34.123,45.068,45.000,0.00,0.09,-272.71,-272.77,-4,963,-4,22.9,4.9,-18.9,22.7,5.0,-18.8,5.73,1.98,-12.2,27.0
2015-04-14 00:04:00,0.0,1.91685,0.00049,404.154,0.038,0.1857,0.0015,140.001,44.998,34156.46336,1.92041,405.062,33.967,45.068,45.000,0.00,0.09,-272.72,-272.78,-4,963,-4,22.9,4.9,-18.9,22.7,5.0,-18.8,5.73,1.97,-12.2,27.0
2015-04-14 00:05:00,0.0,1.91684,0.00099,404.170,0.039,0.1867,0.0013,140.000,44.998,34161.24549,1.92037,405.081,33.811,45.068,45.001,0.00,0.09,-272.72,-272.77,-4,965,-4,22.9,5.0,-18.8,22.7,5.1,-18.7,5.73,1.97,-12.2,27.0
2015-04-14 00:06:00,0.0,1.91728,0.00135,404.164,0.024,0.1864,0.0011,139.999,44.998,34162.36746,1.92082,405.074,33.691,45.068,45.001,0.00,0.09,-272.71,-272.77,-5,966,-4,22.9,5.0,-18.8,22.7,5.1,-18.7,5.73,1.96,-12.2,27.0
2015-04-14 00:07:00,0.0,1.91685,0.00060,404.170,0.031,0.1839,0.0021,139.999,44.998,34162.84574,1.92029,405.068,33.569,45.068,45.001,0.00,0.09,-272.72,-272.77,-5,967,-4,22.9,4.9,-19.0,22.7,5.0,-18.8,5.73,1.96,-12.2,27.0
2015-04-14 00:08:00,0.0,1.91949,0.00110,404.182,0.024,0.1801,0.0013,139.997,44.998,34161.79564,1.92278,405.062,33.445,45.069,45.001,0.00,0.09,-272.72,-272.78,-5,968,-4,22.9,4.8,-19.1,22.7,5.0,-19.0,5.73,1.96,-12.2,27.0
2015-04-14 00:09:00,0.0,1.92020,0.00065,404.233,0.043,0.1786,0.0019,139.999,44.999,34162.08799,1.92365,405.104,33.337,45.069,45.001,0.00,0.09,-272.72,-272.77,-5,969,-4,22.9,4.8,-19.3,22.7,4.9,-19.1,5.73,1.97,-12.2,27.0
2015-04-14 00:10:00,0.0,1.91880,0.00096,404.250,0.035,0.1775,0.0019,140.001,44.999,34161.45814,1.92224,405.116,33.241,45.069,45.001,0.00,0.09,-272.72,-272.77,-5,969,-4,22.9,4.7,-19.4,22.7,4.9,-19.2,5.73,1.97,-12.2,27.0
2015-04-14 00:11:00,0.0,1.91776,0.00036,404.217,0.033,0.1772,0.0019,139.997,44.999,34159.88147,1.92110,405.083,33.159,45.069,45.001,0.00,0.09,-272.72,-272.78,-5,969,-4,22.9,4.8,-19.4,22.6,4.9,-19.2,5.73,1.96,-12.2,27.0
2015-04-14 00:12:00,0.0,1.91762,0.00045,404.232,0.033,0.1785,0.0018,140.003,44.999,34161.70760,1.92104,405.104,33.109,45.068,45.001,0.00,0.09,-272.72,-272.78,-5,969,-4,22.9,4.8,-19.3,22.6,4.9,-19.2,5.73,1.96,-12.2,27.0
2015-04-14 00:13:00,0.0,1.91727,0.00026,404.184,0.027,0.1778,0.0015,140.001,44.999,34160.30584,1.92062,405.051,33.053,45.068,45.000,0.00,0.09,-272.71,-272.77,-5,969,-4,22.9,4.8,-19.3,22.6,4.9,-19.2,5.73,1.96,-12.2,27.1
2015-04-14 00:14:00,0.0,1.91707,0.00058,404.187,0.025,0.1770,0.0017,139.999,44.999,34158.49556,1.92045,405.052,33.004,45.068,45.000,0.00,0.09,-272.72,-272.77,-5,969,-4,22.8,4.8,-19.4,22.6,4.9,-19.2,5.73,1.97,-12.2,27.1
2015-04-14 00:15:00,0.0,1.91697,0.00058,404.202,0.035,0.1774,0.0016,139.999,44.999,34155.40161,1.92030,405.067,32.979,45.068,45.000,0.00,0.09,-272.72,-272.78,-5,969,-4,22.8,4.7,-19.4,22.6,4.9,-19.2,5.73,1.96,-12.2,27.1
2015-04-14 00:16:00,0.0,1.91756,0.00040,404.186,0.028,0.1778,0.0012,139.997,44.999,34151.86937,1.92093,405.055,32.950,45.068,45.000,0.00,0.09,-272.71,-272.78,-6,970,-4,22.8,4.8,-19.4,22.6,4.9,-19.2,5.73,1.97,-12.3,27.1
2015-04-14 00:17:00,0.0,1.91767,0.00049,404.165,0.038,0.1789,0.0014,140.000,44.999,34150.11535,1.92102,405.040,32.946,45.067,45.000,0.00,0.09,-272.71,-272.78,-6,969,-4,22.8,4.8,-19.3,22.6,4.9,-19.2,5.73,1.97,-12.2,27.0
2015-04-14 00:18:00,0.0,1.91826,0.00030,404.149,0.037,0.1800,0.0020,140.001,45.000,34148.06833,1.92169,405.027,32.997,45.067,44.999,0.00,0.09,-272.72,-272.79,-5,971,-4,22.8,4.8,-19.2,22.6,4.9,-19.1,5.73,1.97,-12.2,27.0
2015-04-14 00:19:00,0.0,1.91796,0.00044,404.121,0.045,0.1821,0.0013,139.995,45.000,34145.31641,1.92144,405.011,33.052,45.067,44.999,0.00,0.09,-272.71,-272.78,-6,968,-5,22.8,4.9,-19.1,22.6,5.0,-19.0,5.73,1.97,-12.3,27.0
2015-04-14 00:20:00,0.0,1.91857,0.00049,404.092,0.029,0.1826,0.0014,140.000,45.000,34145.60147,1.92204,404.982,33.116,45.067,44.999,0.00,0.09,-272.71,-272.78,-4,968,-4,22.8,4.9,-19.1,22.5,5.0,-18.9,5.73,1.95,-12.3,27.0
2015-04-14 00:21:00,0.0,1.91835,0.00038,404.121,0.036,0.1844,0.0009,140.003,45.001,34145.17088,1.92180,405.019,33.165,45.067,44.999,0.00,0.09,-272.72,-272.78,-5,967,-4,22.8,4.9,-19.0,22.5,5.0,-19.0,5.73,1.91,-12.3,27.0
2015-04-14 00:22:00,0.0,1.91908,0.00047,404.091,0.032,0.1854,0.0018,140.000,45.001,34145.11705,1.92256,404.996,33.254,45.067,45.000,0.00,0.09,-272.73,-272.77,-4,965,-4,22.8,5.0,-19.0,22.5,5.1,-18.8,5.73,1.92,-12.3,27.0
2015-04-14 00:23:00,0.0,1.91980,0.00034,404.091,0.024,0.1870,0.0022,139.996,45.001,34139.17232,1.92332,405.005,33.338,45.067,45.000,0.00,0.09,-272.72,-272.77,-4,966,-4,22.8,5.0,-18.8,22.5,5.1,-18.7,5.73,2.00,-12.3,27.0
2015-04-14 00:24:00,0.0,1.91994,0.00043,404.072,0.022,0.1882,0.0016,139.996,45.001,34138.06205,1.92354,404.991,33.453,45.068,45.000,0.00,0.09,-272.72,-272.78,-5,964,-4,22.8,5.0,-18.7,22.5,5.1,-18.7,5.73,2.03,-12.3,27.1
2015-04-14 00:25:00,0.0,1.92003,0.00036,404.063,0.031,0.1881,0.0017,139.999,45.002,34139.67774,1.92360,404.983,33.594,45.068,45.001,0.00,0.09,-272.72,-272.78,-3,962,-4,22.8,5.1,-18.7,22.6,5.2,-18.6,5.73,1.90,-12.3,27.1
2015-04-14 00:26:00,0.0,1.92006,0.00063,404.050,0.034,0.1905,0.0020,139.994,45.003,34137.89067,1.92362,404.978,33.767,45.069,45.001,0.00,0.09,-272.72,-272.77,-4,962,-4,22.8,5.1,-18.6,22.6,5.2,-18.5,5.73,1.94,-12.3,27.2
2015-04-14 00:27:00,0.0,1.92039,0.00043,404.057,0.034,0.1914,0.0015,139.999,45.003,34138.02526,1.92405,404.991,33.969,45.070,45.002,0.00,0.09,-272.72,-272.77,-4,961,-4,22.8,5.1,-18.5,22.6,5.2,-18.5,5.73,2.04,-12.3,27.2
2015-04-14 00:28:00,0.0,1.92091,0.00042,404.065,0.032,0.1923,0.0025,139.997,45.003,34135.23710,1.92454,405.004,34.154,45.070,45.002,0.00,0.09,-272.72,-272.78,-3,959,-5,22.8,5.1,-18.5,22.6,5.3,-18.4,5.73,1.87,-12.3,27.3
2015-04-14 00:29:00,0.0,1.92086,0.00059,404.073,0.028,0.1929,0.0017,140.000,45.003,34134.47054,1.92451,405.015,34.325,45.069,45.001,0.00,0.09,-272.72,-272.78,-3,959,-4,22.8,5.1,-18.5,22.7,5.3,-18.3,5.73,2.00,-12.2,27.3
2015-04-14 00:30:00,0.0,1.92095,0.00037,404.079,0.034,0.1932,0.0017,139.998,45.003,34131.28992,1.92462,405.021,34.451,45.068,45.000,0.00,0.09,-272.71,-272.77,-3,957,-4,22.8,5.2,-18.4,22.6,5.3,-18.3,5.73,2.00,-12.2,27.4
2015-04-14 00:31:00,0.0,1.91990,0.00102,404.153,0.033,0.1906,0.0019,139.999,45.002,34126.20273,1.92361,405.083,34.526,45.067,44.999,0.00,0.09,-272.72,-272.78,-3,956,-4,22.8,5.1,-18.6,22.6,5.2,-18.4,5.73,1.85,-12.2,27.4
2015-04-14 00:32:00,0.0,1.91813,0.00041,404.176,0.027,0.1890,0.0015,139.999,45.002,34123.78065,1.92172,405.099,34.569,45.067,44.999,0.00,0.09,-272.72,-272.78,-2,954,-4,22.8,5.0,-18.7,22.7,5.2,-18.5,5.73,2.02,-12.2,27.4
2015-04-14 00:33:00,0.0,1.91962,0.00122,404.177,0.045,0.1871,0.0018,139.997,45.001,34119.23156,1.92306,405.090,34.616,45.066,44.998,0.00,0.09,-272.71,-272.78,-3,954,-4,22.8,5.0,-18.8,22.7,5.1,-18.6,5.73,1.97,-12.2,27.4
2015-04-14 00:34:00,0.0,1.91974,0.00060,404.172,0.027,0.1869,0.0015,139.999,45.000,34115.20741,1.92337,405.085,34.625,45.066,44.998,0.00,0.09,-272.72,-272.77,-2,954,-4,22.8,5.0,-18.8,22.7,5.1,-18.7,5.73,1.86,-12.2,27.4
2015-04-14 00:35:00,0.0,1.91910,0.00037,404.221,0.037,0.1868,0.0019,140.000,45.000,34113.23310,1.92266,405.132,34.624,45.066,44.998,0.00,0.09,-272.73,-272.78,-2,952,-4,22.9,5.0,-18.8,22.7,5.1,-18.7,5.73,2.02,-12.2,27.4
2015-04-14 00:36:00,0.0,1.91982,0.00039,404.211,0.022,0.1868,0.0015,140.006,45.000,34112.22235,1.92335,405.123,34.603,45.066,44.999,0.00,0.09,-272.72,-272.78,-2,954,-4,22.9,5.0,-18.8,22.7,5.1,-18.7,5.73,1.96,-12.2,27.3
2015-04-14 00:37:00,0.0,1.91996,0.00040,404.244,0.028,0.1858,0.0014,139.998,44.999,34109.64024,1.92347,405.151,34.563,45.066,44.999,0.00,0.09,-272.71,-272.77,-2,951,-4,22.9,5.0,-18.8,22.7,5.1,-18.7,5.73,1.87,-12.2,27.3
2015-04-14 00:38:00,0.0,1.91997,0.00063,404.256,0.022,0.1843,0.0018,139.994,44.999,34108.88166,1.92343,405.156,34.504,45.067,45.000,0.00,0.09,-272.72,-272.77,-2,954,-4,22.9,4.9,-18.9,22.7,5.1,-18.8,5.73,1.97,-12.2,27.3
2015-04-14 00:39:00,0.0,1.92126,0.00052,404.280,0.023,0.1818,0.0019,140.001,44.999,34111.43794,1.92466,405.166,34.439,45.067,45.000,0.00,0.09,-272.72,-272.77,-2,953,-4,22.9,4.9,-19.1,22.7,5.0,-18.9,5.73,2.02,-12.2,27.3
2015-04-14 00:40:00,0.0,1.92173,0.00055,404.301,0.056,0.1796,0.0019,140.005,44.999,34115.67196,1.92519,405.178,34.380,45.068,45.000,0.00,0.09,-272.71,-272.77,-2,955,-4,22.9,4.8,-19.2,22.7,4.9,-19.0,5.73,1.90,-12.1,27.3
2015-04-14 00:41:00,0.0,1.92056,0.00034,404.231,0.033,0.1752,0.0020,140.001,44.999,34123.65608,1.92390,405.089,34.303,45.068,45.001,0.00,0.09,-272.72,-272.78,-2,956,-4,22.9,4.7,-19.5,22.7,4.9,-19.2,5.73,1.88,-12.1,27.3
2015-04-14 00:42:00,0.0,1.92079,0.00048,404.213,0.034,0.1735,0.0019,140.003,44.999,34132.06689,1.92409,405.059,34.239,45.068,45.001,0.00,0.09,-272.72,-272.78,-3,958,-4,22.9,4.6,-19.6,22.7,4.8,-19.4,5.73,1.95,-12.1,27.2
2015-04-14 00:43:00,0.0,1.92107,0.00046,404.283,0.035,0.1709,0.0017,140.003,44.999,34142.03765,1.92429,405.117,34.132,45.068,45.000,0.00,0.09,-272.71,-272.77,-4,961,-4,23.0,4.6,-19.7,22.7,4.7,-19.5,5.73,1.97,-12.1,27.1
2015-04-14 00:44:00,0.0,1.92096,0.00031,404.287,0.036,0.1703,0.0017,140.002,44.999,34148.58842,1.92420,405.116,33.997,45.068,45.000,0.00,0.09,-272.72,-272.78,-4,963,-4,23.0,4.5,-19.8,22.7,4.7,-19.6,5.73,1.96,-12.1,27.0
2015-04-14 00:45:00,0.0,1.92122,0.00028,404.281,0.042,0.1678,0.0021,139.999,44.999,34151.81959,1.92440,405.102,33.877,45.067,45.000,0.00,0.09,-272.72,-272.79,-5,965,-4,23.0,4.5,-19.9,22.7,4.7,-19.7,5.73,1.97,-12.1,27.0
2015-04-14 00:46:00,0.0,1.92115,0.00039,404.294,0.045,0.1676,0.0016,140.001,44.998,34155.25727,1.92428,405.111,33.765,45.068,45.000,0.00,0.09,-272.71,-272.77,-5,966,-4,22.9,4.5,-19.9,22.7,4.6,-19.8,5.73,1.97,-12.1,26.9
2015-04-14 00:47:00,0.0,1.92082,0.00041,404.284,0.036,0.1675,0.0016,139.998,44.999,34158.15992,1.92404,405.100,33.646,45.068,45.000,0.00,0.09,-272.72,-272.77,-5,967,-4,22.9,4.5,-19.9,22.7,4.6,-19.8,5.73,1.96,-12.1,27.0
2015-04-14 00:48:00,0.0,1.92047,0.00031,404.278,0.027,0.1671,0.0015,139.997,44.999,34159.15254,1.92367,405.097,33.525,45.068,45.001,0.00,0.09,-272.72,-272.78,-5,968,-4,23.0,4.5,-20.0,22.7,4.6,-19.8,5.73,1.96,-12.1,27.0
2015-04-14 00:49:00,0.0,1.92012,0.00045,404.270,0.026,0.1671,0.0011,139.994,44.999,34160.27898,1.92328,405.085,33.424,45.068,45.001,0.00,0.09,-272.72,-272.78,-5,967,-4,22.9,4.5,-20.0,22.7,4.6,-19.8,5.73,1.97,-12.1,27.0
2015-04-14 00:50:00,0.0,1.92098,0.00045,404.208,0.037,0.1670,0.0014,140.000,44.999,34160.57370,1.92416,405.024,33.356,45.068,45.001,0.00,0.09,-272.72,-272.77,-5,968,-4,22.9,4.5,-20.0,22.7,4.6,-19.8,5.73,1.97,-12.1,27.0
2015-04-14 00:51:00,0.0,1.92059,0.00027,404.228,0.035,0.1665,0.0013,139.998,44.999,34161.78376,1.92374,405.038,33.276,45.068,45.001,0.00,0.09,-272.72,-272.77,-5,969,-4,22.9,4.5,-20.0,22.7,4.6,-19.8,5.73,1.97,-12.2,27.0
2015-04-14 00:52:00,0.0,1.92143,0.00065,404.249,0.056,0.1670,0.0018,139.998,44.999,34158.39147,1.92449,405.065,33.196,45.068,45.001,0.00,0.09,-272.72,-272.78,-5,968,-4,22.9,4.5,-20.0,22.7,4.6,-19.8,5.73,1.97,-12.2,27.0
2015-04-14 00:53:00,0.0,1.92416,0.00112,404.244,0.039,0.1673,0.0018,140.000,44.999,34159.67623,1.92726,405.060,33.135,45.068,45.001,0.00,0.09,-272.72,-272.77,-5,969,-4,22.9,4.5,-20.0,22.7,4.6,-19.8,5.73,1.97,-12.2,27.0
2015-04-14 00:54:00,0.0,1.92382,0.00105,404.261,0.050,0.1668,0.0019,140.001,44.999,34159.60992,1.92702,405.075,33.071,45.068,45.000,0.00,0.09,-272.71,-272.77,-5,969,-4,22.9,4.5,-19.9,22.7,4.6,-19.8,5.73,1.96,-12.2,27.1
2015-04-14 00:55:00,0.0,1.92486,0.00070,404.248,0.031,0.1664,0.0019,140.000,44.999,34154.83490,1.92796,405.060,33.062,45.068,45.000,0.00,0.09,-272.72,-272.78,-5,969,-4,22.9,4.5,-20.0,22.7,4.6,-19.8,5.73,1.96,-11.4,27.1
2015-04-14 00:56:00,0.0,1.92417,0.00083,404.273,0.028,0.1651,0.0013,139.999,44.999,34154.55041,1.92735,405.079,33.065,45.068,45.000,0.00,0.09,-272.71,-272.78,-5,969,-4,22.9,4.5,-20.1,22.7,4.6,-19.9,5.73,1.96,-11.2,27.1
2015-04-14 00:57:00,0.0,1.92378,0.00071,404.293,0.036,0.1664,0.0013,140.001,44.999,34153.94453,1.92703,405.103,33.064,45.068,44.999,0.00,0.09,-272.71,-272.78,-5,969,-4,22.9,4.4,-20.1,22.7,4.6,-19.9,5.73,1.96,-11.3,27.0
2015-04-14 00:58:00,0.0,1.92403,0.00064,404.278,0.023,0.1665,0.0014,140.000,44.999,34154.61403,1.92713,405.091,33.063,45.067,44.999,0.00,0.09,-272.72,-272.78,-5,969,-4,22.9,4.5,-20.1,22.7,4.6,-19.9,5.73,1.96,-11.4,27.0
2015-04-14 00:59:00,0.0,1.92373,0.00098,404.270,0.026,0.1668,0.0015,139.997,44.999,34153.71088,1.92690,405.084,33.061,45.067,44.999,0.00,0.09,-272.72,-272.78,-6,970,-4,22.9,4.5,-20.0,22.6,4.6,-19.8,5.73,1.96,-11.5,27.0
2015-04-14 01:00:00,0.0,1.92512,0.00056,404.253,0.037,0.1684,0.0014,139.997,44.999,34151.98126,1.92827,405.074,33.035,45.067,44.999,0.00,0.09,-272.72,-272.77,-4,968,-3,22.9,4.5,-19.9,22.6,4.7,-19.8,5.73,1.96,-11.5,27.0
2015-04-14 01:01:00,0.0,1.92519,0.00026,404.305,0.027,0.1687,0.0019,140.001,44.999,34149.82740,1.92842,405.128,33.013,45.067,44.999,0.00,0.09,-272.72,-272.78,-5,969,-6,22.9,4.5,-19.9,22.6,4.7,-19.8,5.73,1.97,-11.6,27.0
2015-04-14 01:02:00,0.0,1.92570,0.00074,404.298,0.026,0.1681,0.0013,139.997,45.000,34146.33423,1.92887,405.117,33.028,45.067,44.999,0.00,0.09,-272.72,-272.78,-5,970,-4,22.9,4.5,-19.9,22.6,4.7,-19.8,5.73,1.97,-11.6,26.9
2015-04-14 01:03:00,0.0,1.92543,0.00062,404.303,0.043,0.1699,0.0015,140.000,45.000,34146.93896,1.92869,405.131,33.070,45.067,44.999,0.00,0.09,-272.72,-272.78,-5,969,-4,22.9,4.6,-19.8,22.6,4.7,-19.7,5.73,1.98,-11.7,27.0
2015-04-14 01:04:00,0.0,1.92509,0.00049,404.292,0.036,0.1686,0.0019,139.997,45.000,34143.50464,1.92834,405.117,33.130,45.067,45.000,0.00,0.09,-272.72,-272.77,-5,969,-4,22.9,4.5,-19.9,22.6,4.7,-19.7,5.73,2.00,-11.7,27.0
2015-04-14 01:05:00,0.0,1.92411,0.00077,404.297,0.034,0.1680,0.0018,139.998,45.001,34141.96564,1.92728,405.117,33.208,45.067,45.000,0.00,0.09,-272.72,-272.78,-5,967,-4,22.8,4.5,-19.9,22.6,4.6,-19.8,5.73,1.99,-11.7,27.0
2015-04-14 01:06:00,0.0,1.92417,0.00053,404.300,0.029,0.1682,0.0021,140.000,45.001,34143.19845,1.92738,405.120,33.283,45.068,45.000,0.00,0.09,-272.72,-272.78,-5,966,-4,22.8,4.5,-19.9,22.6,4.7,-19.8,5.73,1.96,-11.8,27.0
2015-04-14 01:07:00,0.0,1.92445,0.00036,404.311,0.032,0.1706,0.0017,140.001,45.001,34142.06054,1.92771,405.143,33.370,45.068,45.000,0.00,0.09,-272.71,-272.77,-5,965,-4,22.8,4.6,-19.8,22.6,4.7,-19.7,5.73,1.91,-11.8,27.0
2015-04-14 01:08:00,0.0,1.92456,0.00049,404.346,0.037,0.1731,0.0019,139.997,45.001,34136.37850,1.92785,405.189,33.456,45.068,45.000,0.00,0.09,-272.72,-272.77,-4,965,-4,22.8,4.6,-19.7,22.6,4.8,-19.5,5.73,1.93,-11.8,27.0
2015-04-14 01:09:00,0.0,1.92362,0.00039,404.354,0.040,0.1741,0.0014,140.000,45.002,34135.02997,1.92695,405.205,33.588,45.068,45.001,0.00,0.09,-272.73,-272.78,-4,965,-4,22.8,4.7,-19.6,22.6,4.8,-19.4,5.73,2.04,-11.9,27.1
2015-04-14 01:10:00,0.0,1.92407,0.00032,404.335,0.033,0.1752,0.0018,139.993,45.002,34131.00859,1.92738,405.191,33.707,45.068,45.001,0.00,0.09,-272.71,-272.78,-4,962,-4,22.8,4.7,-19.5,22.6,4.8,-19.4,5.73,1.98,-11.9,27.1
2015-04-14 01:11:00,0.0,1.92389,0.00038,404.346,0.032,0.1765,0.0015,140.003,45.002,34133.29565,1.92724,405.207,33.842,45.069,45.001,0.00,0.09,-272.71,-272.78,-4,961,-4,22.8,4.7,-19.4,22.6,4.9,-19.3,5.73,1.88,-11.9,27.2
2015-04-14 01:12:00,0.0,1.92377,0.00044,404.315,0.040,0.1768,0.0018,139.999,45.002,34132.95931,1.92713,405.177,33.992,45.069,45.002,0.00,0.09,-272.73,-272.78,-4,960,-4,22.8,4.8,-19.4,22.7,4.9,-19.2,5.73,2.03,-11.9,27.3
2015-04-14 01:13:00,0.0,1.92386,0.00034,404.330,0.033,0.1781,0.0018,140.000,45.002,34130.69882,1.92729,405.200,34.130,45.069,45.001,0.00,0.09,-272.72,-272.78,-3,958,-8,22.8,4.8,-19.3,22.7,4.9,-19.2,5.73,1.97,-11.9,27.3
2015-04-14 01:14:00,0.0,1.92290,0.00035,404.316,0.034,0.1794,0.0016,139.999,45.002,34128.81785,1.92631,405.194,34.223,45.069,45.001,0.00,0.09,-272.71,-272.78,-3,957,-4,22.8,4.8,-19.3,22.6,4.9,-19.1,5.73,1.89,-11.9,27.4
2015-04-14 01:15:00,0.0,1.92297,0.00033,404.250,0.037,0.1809,0.0021,140.001,45.002,34129.96083,1.92644,405.131,34.293,45.068,45.000,0.00,0.09,-272.72,-272.78,-3,956,-4,22.8,4.8,-19.2,22.7,4.9,-19.1,5.73,2.03,-11.9,27.3
2015-04-14 01:16:00,0.0,1.92275,0.00047,404.255,0.033,0.1819,0.0017,139.997,45.002,34126.24172,1.92621,405.144,34.341,45.067,44.999,0.00,0.09,-272.72,-272.78,-3,956,-4,22.9,4.9,-19.0,22.7,5.0,-19.0,5.73,1.96,-11.9,27.4
2015-04-14 01:17:00,0.0,1.92229,0.00038,404.271,0.034,0.1837,0.0016,139.999,45.001,34122.42516,1.92577,405.167,34.375,45.067,44.999,0.00,0.09,-272.72,-272.77,-2,955,-4,22.9,4.9,-18.9,22.7,5.0,-18.8,5.73,1.87,-11.9,27.4
2015-04-14 01:18:00,0.0,1.92231,0.00033,404.232,0.045,0.1847,0.0017,140.001,45.000,34122.36289,1.92581,405.135,34.375,45.066,44.999,0.00,0.09,-272.72,-272.78,-3,955,-4,22.9,4.9,-18.9,22.7,5.0,-18.8,5.73,2.02,-11.9,27.3
2015-04-14 01:19:00,0.0,1.92270,0.00050,404.189,0.039,0.1865,0.0022,140.001,45.000,34119.82517,1.92623,405.101,34.377,45.066,44.999,0.00,0.09,-272.72,-272.78,-2,954,-4,22.9,5.0,-18.8,22.7,5.1,-18.7,5.73,1.98,-11.9,27.3
2015-04-14 01:20:00,0.0,1.92239,0.00032,404.178,0.033,0.1892,0.0021,139.996,45.000,34116.06956,1.92602,405.101,34.377,45.067,44.999,0.00,0.09,-272.72,-272.77,-3,956,-4,22.9,5.1,-18.6,22.7,5.2,-18.5,5.73,1.87,-11.9,27.2
2015-04-14 01:21:00,0.0,1.92203,0.00035,404.180,0.033,0.1922,0.0022,140.000,45.000,34118.22268,1.92567,405.118,34.364,45.067,44.999,0.00,0.09,-272.72,-272.78,-2,954,-4,22.9,5.1,-18.5,22.7,5.2,-18.4,5.73,1.94,-11.9,27.2
2015-04-14 01:22:00,0.0,1.92156,0.00038,404.134,0.028,0.1944,0.0018,140.000,45.000,34120.33463,1.92528,405.083,34.317,45.067,45.000,0.00,0.09,-272.73,-272.78,-3,957,-4,22.9,5.2,-18.3,22.7,5.3,-18.2,5.73,2.02,-11.9,27.3
2015-04-14 01:23:00,0.0,1.92141,0.00038,404.137,0.043,0.1959,0.0018,139.999,44.999,34122.56267,1.92512,405.092,34.265,45.067,45.000,0.00,0.09,-272.71,-272.78,-3,956,-4,22.9,5.2,-18.2,22.7,5.3,-18.1,5.73,1.95,-11.9,27.3
2015-04-14 01:24:00,0.0,1.92163,0.00037,404.146,0.035,0.1979,0.0022,140.006,45.000,34128.91921,1.92535,405.113,34.222,45.068,45.000,0.00,0.09,-272.71,-272.77,-3,957,-4,22.9,5.3,-18.0,22.7,5.4,-18.0,5.73,1.90,-11.9,27.2
2015-04-14 01:25:00,0.0,1.92277,0.00073,404.154,0.037,0.1987,0.0013,139.992,44.999,34132.56031,1.92651,405.125,34.157,45.068,45.001,0.00,0.09,-272.72,-272.78,-3,958,-4,23.0,5.3,-18.0,22.7,5.4,-17.9,5.73,1.93,-11.9,27.1
2015-04-14 01:26:00,0.0,1.92449,0.00036,404.242,0.027,0.1975,0.0011,140.002,44.999,34139.82981,1.92822,405.204,34.076,45.068,45.000,0.00,0.09,-272.72,-272.78,-4,962,-4,23.0,5.3,-18.1,22.7,5.4,-17.9,5.73,1.96,-11.9,27.1
2015-04-14 01:27:00,0.0,1.92493,0.00047,404.235,0.044,0.1979,0.0013,140.003,44.999,34148.73615,1.92866,405.203,33.956,45.068,45.000,0.00,0.09,-272.71,-272.77,-4,963,-4,23.0,5.2,-18.1,22.7,5.4,-18.0,5.73,1.97,-11.9,26.9
2015-04-14 01:28:00,0.0,1.92373,0.00055,404.179,0.026,0.1969,0.0019,140.000,44.999,34157.28214,1.92752,405.142,33.837,45.068,45.000,0.00,0.09,-272.72,-272.78,-4,965,-4,23.0,5.2,-18.2,22.7,5.4,-18.0,5.73,1.97,-11.9,26.8
2015-04-14 01:29:00,0.0,1.92423,0.00055,404.172,0.029,0.1990,0.0020,140.000,44.999,34163.75155,1.92798,405.143,33.720,45.068,45.001,0.00,0.09,-272.73,-272.78,-5,966,-4,23.0,5.3,-18.1,22.7,5.4,-17.9,5.73,1.96,-11.9,26.9
2015-04-14 01:30:00,0.0,1.92430,0.00033,404.191,0.026,0.2006,0.0020,140.001,44.998,34165.68281,1.92814,405.169,33.631,45.068,45.001,0.00,0.09,-272.72,-272.78,-5,967,-4,23.0,5.3,-17.9,22.7,5.5,-17.9,5.73,1.97,-11.9,26.8
2015-04-14 01:31:00,0.0,1.92393,0.00042,404.178,0.034,0.2041,0.0014,139.999,44.998,34167.78792,1.92778,405.174,33.537,45.068,45.001,0.00,0.09,-272.71,-272.77,-5,968,-4,23.0,5.4,-17.8,22.7,5.5,-17.7,5.73,1.95,-11.9,26.9
2015-04-14 01:32:00,0.0,1.92404,0.00055,404.150,0.029,0.2047,0.0019,140.000,44.998,34169.00881,1.92795,405.150,33.468,45.068,45.001,0.00,0.09,-272.73,-272.78,-5,969,-4,23.0,5.5,-17.7,22.7,5.6,-17.6,5.73,1.96,-11.9,26.9
2015-04-14 01:33:00,0.0,1.92419,0.00087,404.140,0.034,0.2059,0.0015,139.999,44.999,34168.48100,1.92806,405.148,33.385,45.068,45.001,0.00,0.09,-272.72,-272.78,-5,969,-4,23.0,5.5,-17.6,22.7,5.6,-17.5,5.73,1.96,-11.9,27.0
2015-04-14 01:34:00,0.0,1.92463,0.00047,404.146,0.028,0.2077,0.0019,140.000,44.999,34167.50388,1.92864,405.160,33.307,45.068,45.001,0.00,0.09,-272.71,-272.77,-5,970,-4,22.9,5.5,-17.6,22.7,5.7,-17.4,5.73,1.96,-11.9,27.0
2015-04-14 01:35:00,0.0,1.92441,0.00063,404.142,0.029,0.2095,0.0015,139.998,44.999,34164.84006,1.92836,405.166,33.248,45.068,45.001,0.00,0.09,-272.72,-272.78,-5,969,-4,22.9,5.6,-17.5,22.7,5.7,-17.3,5.73,1.96,-11.9,27.0
2015-04-14 01:36:00,0.0,1.92467,0.00041,404.115,0.041,0.2102,0.0019,139.999,44.999,34163.57089,1.92867,405.142,33.192,45.068,45.000,0.00,0.09,-272.72,-272.78,-5,970,-4,22.9,5.6,-17.4,22.7,5.8,-17.2,5.73,1.96,-11.9,27.1
2015-04-14 01:37:00,0.0,1.92431,0.00028,404.050,0.034,0.2105,0.0016,140.000,44.999,34163.88217,1.92833,405.077,33.164,45.068,45.000,0.00,0.09,-272.72,-272.77,-6,970,-4,23.0,5.6,-17.3,22.7,5.8,-17.2,5.73,1.96,-11.9,27.1
2015-04-14 01:38:00,0.0,1.92407,0.00049,404.065,0.020,0.2109,0.0017,140.001,44.999,34161.82086,1.92809,405.096,33.134,45.068,45.000,0.00,0.09,-272.72,-272.78,-6,970,-4,22.9,5.6,-17.4,22.7,5.8,-17.2,5.73,1.97,-11.9,27.1
2015-04-14 01:39:00,0.0,1.92407,0.00050,404.074,0.035,0.2124,0.0025,139.999,44.999,34161.28346,1.92814,405.111,33.106,45.068,45.000,0.00,0.09,-272.71,-272.78,-5,970,-4,22.9,5.7,-17.3,22.7,5.8,-17.1,5.73,1.96,-11.9,27.0
2015-04-14 01:40:00,0.0,1.92342,0.00033,404.039,0.041,0.2150,0.0015,140.000,44.999,34161.42881,1.92753,405.088,33.070,45.067,45.000,0.00,0.09,-272.72,-272.78,-5,970,-4,22.9,5.7,-17.2,22.7,5.9,-17.0,5.73,1.97,-11.9,27.1
2015-04-14 01:41:00,0.0,1.92326,0.00037,404.026,0.038,0.2153,0.0020,139.995,44.999,34157.88430,1.92734,405.079,33.061,45.067,45.000,0.00,0.09,-272.72,-272.77,-5,970,-4,22.9,5.7,-17.1,22.7,5.9,-17.0,5.73,1.96,-11.9,27.1
2015-04-14 01:42:00,0.0,1.92335,0.00040,404.044,0.030,0.2156,0.0019,139.997,44.999,34157.26597,1.92748,405.098,33.053,45.067,45.000,0.00,0.09,-272.72,-272.78,-6,970,-4,22.9,5.8,-17.1,22.7,5.9,-16.9,5.73,1.96,-11.9,27.1
2015-04-14 01:43:00,0.0,1.92315,0.00046,404.034,0.039,0.2164,0.0012,140.000,44.999,34155.71384,1.92727,405.094,33.063,45.067,44.999,0.00,0.09,-272.72,-272.78,-5,970,-4,22.9,5.8,-17.1,22.7,5.9,-16.9,5.73,1.96,-12.0,27.0
2015-04-14 01:44:00,0.0,1.92288,0.00045,404.047,0.046,0.2154,0.0021,140.000,44.999,34152.67537,1.92696,405.097,33.093,45.067,44.999,0.00,0.09,-272.72,-272.77,-5,970,-4,22.9,5.8,-17.1,22.6,5.9,-17.0,5.73,1.96,-11.9,27.0
2015-04-14 01:45:00,0.0,1.92302,0.00034,404.107,0.029,0.2155,0.0016,140.000,45.000,34152.96301,1.92711,405.160,33.163,45.067,45.000,0.00,0.09,-272.72,-272.77,-5,969,-4,22.9,5.8,-17.1,22.6,5.9,-17.0,5.73,1.98,-11.9,27.0
2015-04-14 01:46:00,0.0,1.92282,0.00039,404.109,0.048,0.2132,0.0020,140.001,45.000,34150.50732,1.92689,405.150,33.257,45.067,44.999,0.00,0.09,-272.72,-272.78,-5,970,-5,22.9,5.7,-17.2,22.6,5.9,-17.0,5.73,2.00,-12.0,27.1